Waarnemingen

Advertentie
Mijn weer
Europlatform, Nederland (6321): temperatuur & dauwpunt: 15.01.2017 11:00:00 - 21.01.2017 11:00:00 (CET)Europlatform, Nederland (6321): water temperatuur: 15.01.2017 11:00:00 - 21.01.2017 11:00:00 (CET)Europlatform, Nederland (6321): windsnelheid & windstoten: 15.01.2017 11:00:00 - 21.01.2017 11:00:00 (CET)Europlatform, Nederland (6321): windrichting: 15.01.2017 11:00:00 - 21.01.2017 11:00:00 (CET)Europlatform, Nederland (6321): luchtdruk: 15.01.2017 11:00:00 - 21.01.2017 11:00:00 (CET)Europlatform, Nederland (6321): zicht: 15.01.2017 11:00:00 - 21.01.2017 11:00:00 (CET)
Datum & Tijd tt [°C] td [°C] tw [°C] ff [km/u] ff [kn] fx [km/u] fx [kn] dd ppp [hPa] vv [km]
21.01.2017 11:00:00 3,4 -0,1 6,3 25 14 32 18 O 1030,1 18
21.01.2017 10:00:00 3,6 0,4 6,3 25 14 36 19 ONO 1030,3 19
21.01.2017 09:00:00 4,1 1,1 6,3 32 18 36 19 ONO 1030,1 25
21.01.2017 08:00:00 4,1 1,5 6,3 32 18 40 21 ONO 1030,1 27
21.01.2017 07:00:00 4,3 1,7 6,3 32 18 43 23 ONO 1030,3 28
21.01.2017 06:00:00 4,3 1,6 6,3 36 19 43 23 ONO 1030,7 34
21.01.2017 05:00:00 4,4 1,8 6,3 36 19 43 23 ONO 1030,9 31
21.01.2017 04:00:00 4,5 1,8 6,3 36 19 40 21 ONO 1031,4 34
21.01.2017 03:00:00 4,6 1,8 6,3 36 19 43 23 ONO 1031,8 31
21.01.2017 02:00:00 4,8 1,3 6,3 36 19 40 21 ONO 1031,9 32
21.01.2017 01:00:00 5,1 0,6 6,3 32 18 40 21 ONO 1032,4 31
21.01.2017 00:00:00 5,1 0,4 6,3 36 19 43 23 ONO 1032,7 32
20.01.2017 23:00:00 5,3 -0,5 6,3 36 19 43 23 ONO 1032,8 29
20.01.2017 22:00:00 5,5 -4,3 6,3 36 19 43 23 ONO 1033,2 42
20.01.2017 21:00:00 5,7 -4,2 6,3 32 18 40 21 ONO 1033,1 49
20.01.2017 20:00:00 5,4 -1,9 6,3 32 18 36 19 ONO 1033,2 39
20.01.2017 19:00:00 5,3 -1,6 6,3 29 16 32 18 ONO 1033,3 37
20.01.2017 18:00:00 5,4 -2,2 6,3 32 18 36 19 ONO 1033,4 37
20.01.2017 17:00:00 5,4 -0,8 6,3 25 14 29 16 NO 1033,4 38
20.01.2017 16:00:00 5,4 -2,6 6,3 25 14 29 16 ONO 1033,6 46
20.01.2017 15:00:00 5,3 -4,3 6,3 22 12 - - NO 1033,8 45
20.01.2017 14:00:00 5,1 -6,2 6,3 22 12 29 16 ONO 1034,2 45
20.01.2017 13:00:00 4,9 -7,0 6,4 22 12 29 16 ONO 1034,7 49
20.01.2017 12:00:00 5,0 -6,8 6,3 25 14 29 16 ONO 1035,2 47
20.01.2017 11:00:00 4,9 -5,7 6,3 22 12 25 14 ONO 1035,5 41
20.01.2017 10:00:00 4,7 -6,7 6,3 22 12 25 14 ONO 1035,6 41
20.01.2017 09:00:00 4,9 -6,7 6,4 22 12 25 14 ONO 1035,4 47
20.01.2017 08:00:00 4,7 -7,1 6,3 22 12 25 14 ONO 1035,3 46
20.01.2017 07:00:00 4,4 -5,0 6,3 18 10 22 12 O 1035,4 37
20.01.2017 06:00:00 4,3 -5,3 6,3 18 10 22 12 O 1035,6 40
20.01.2017 05:00:00 4,4 -5,5 6,3 18 10 25 14 ONO 1035,9 38
20.01.2017 04:00:00 4,5 -4,7 6,3 22 12 25 14 ONO 1035,7 35
20.01.2017 03:00:00 4,6 -5,6 6,3 18 10 22 12 ONO 1035,9 40
20.01.2017 02:00:00 4,4 -4,0 6,3 18 10 22 12 NO 1036,0 27
20.01.2017 01:00:00 4,4 -3,1 6,3 18 10 22 12 ONO 1036,3 25
20.01.2017 00:00:00 4,5 -4,0 6,3 14 8 18 10 ONO 1036,9 29
19.01.2017 23:00:00 4,6 -3,1 6,4 14 8 18 10 ONO 1036,9 26
19.01.2017 22:00:00 4,6 -4,7 6,3 14 8 18 10 ONO 1037,1 34
19.01.2017 21:00:00 4,6 -3,5 6,3 14 8 18 10 ONO 1037,3 32
19.01.2017 20:00:00 4,6 -3,5 6,3 14 8 18 10 ONO 1037,4 27
19.01.2017 19:00:00 4,5 -2,5 6,3 14 8 18 10 ONO 1037,2 21
19.01.2017 18:00:00 4,4 -3,7 6,3 14 8 18 10 ONO 1037,1 33
19.01.2017 17:00:00 4,2 -4,0 6,3 14 8 18 10 NO 1037,0 37
19.01.2017 16:00:00 4,0 -4,3 6,3 14 8 18 10 ONO 1037,1 35
19.01.2017 15:00:00 4,0 -4,1 6,3 14 8 14 8 ONO 1037,2 27
19.01.2017 14:00:00 3,7 -4,4 6,4 11 6 14 8 ONO 1037,5 25
19.01.2017 13:00:00 3,6 -5,3 6,3 11 6 14 8 ONO 1037,9 32
19.01.2017 12:00:00 3,6 -6,3 6,4 11 6 18 10 ONO 1038,1 40
19.01.2017 11:00:00 3,0 -4,8 6,4 14 8 22 12 O 1038,4 24
19.01.2017 10:00:00 2,9 -2,1 6,3 14 8 18 10 O 1038,5 14
19.01.2017 09:00:00 3,4 -3,3 6,4 14 8 18 10 O 1037,9 20
19.01.2017 08:00:00 3,3 -4,1 6,4 14 8 18 10 ONO 1037,7 23
19.01.2017 07:00:00 3,3 -3,8 6,3 14 8 18 10 ONO 1037,7 17
19.01.2017 06:00:00 3,5 -4,2 6,4 11 6 14 8 ONO 1037,7 19
19.01.2017 05:00:00 3,6 -5,0 6,3 11 6 14 8 ONO 1038,0 24
19.01.2017 04:00:00 3,4 -4,1 6,4 7 4 14 8 ONO 1038,0 23
19.01.2017 03:00:00 3,1 -4,9 6,4 11 6 14 8 ONO 1038,4 26
19.01.2017 02:00:00 3,2 -5,0 6,4 11 6 14 8 ONO 1038,1 29
19.01.2017 01:00:00 3,3 -5,9 6,4 11 6 14 8 ONO 1038,3 46
19.01.2017 00:00:00 3,1 -6,2 6,4 11 6 14 8 ONO 1038,7 39
18.01.2017 23:00:00 3,0 -3,4 6,4 11 6 14 8 ONO 1038,7 14
18.01.2017 22:00:00 2,9 -2,4 6,4 11 6 14 8 O 1038,7 11
18.01.2017 21:00:00 2,7 -2,6 6,4 7 4 11 6 O 1038,6 12
18.01.2017 20:00:00 2,4 -2,7 6,4 7 4 14 8 ONO 1038,9 13
18.01.2017 19:00:00 2,2 -2,9 6,4 11 6 14 8 ONO 1038,9 14
18.01.2017 18:00:00 2,1 -3,1 6,4 11 6 14 8 O 1039,1 16
18.01.2017 17:00:00 1,7 -2,6 6,4 11 6 14 8 O 1039,2 11
18.01.2017 16:00:00 1,1 -2,0 6,4 7 4 11 6 O 1039,2 8
18.01.2017 15:00:00 0,6 -2,3 6,4 7 4 14 8 O 1039,3 8
18.01.2017 14:00:00 0,4 -2,0 6,4 11 6 14 8 OZO 1039,3 7
18.01.2017 13:00:00 0,5 -2,1 6,4 11 6 14 8 OZO 1039,6 7
18.01.2017 12:00:00 1,2 -1,9 6,4 4 2 18 10 OZO 1039,9 9
18.01.2017 11:00:00 1,3 -2,3 6,5 11 6 14 8 ZO 1040,1 10
18.01.2017 10:00:00 0,0 -2,0 6,4 11 6 - - ZO 1040,0 9
18.01.2017 09:00:00 -0,2 -1,9 6,5 18 10 22 12 ZO 1039,5 10
18.01.2017 08:00:00 0,5 -1,8 6,5 14 8 22 12 OZO 1039,3 9
18.01.2017 07:00:00 1,7 -2,7 6,5 14 8 22 12 OZO 1038,9 13
18.01.2017 06:00:00 1,9 -2,5 6,5 11 6 14 8 O 1038,8 13
18.01.2017 05:00:00 2,1 -3,1 6,5 7 4 11 6 OZO 1039,0 14
18.01.2017 04:00:00 2,0 -2,4 6,5 7 4 11 6 O 1039,2 12
18.01.2017 03:00:00 1,9 -1,6 6,5 7 4 11 6 OZO 1039,4 10
18.01.2017 02:00:00 2,0 -2,0 6,5 7 4 14 8 OZO 1039,3 11
18.01.2017 01:00:00 2,1 -2,8 6,5 11 6 14 8 ZO 1039,1 12
18.01.2017 00:00:00 1,9 -2,4 6,5 11 6 14 8 ZO 1039,2 10
17.01.2017 23:00:00 2,0 -2,2 6,5 11 6 14 8 ZO 1039,3 10
17.01.2017 22:00:00 1,9 -2,6 6,6 11 6 14 8 ZO 1039,4 11
17.01.2017 21:00:00 1,9 -2,7 6,6 11 6 18 10 ZO 1039,2 11
17.01.2017 20:00:00 1,9 -2,8 6,6 11 6 18 10 ZZO 1038,8 11
17.01.2017 19:00:00 1,5 -2,5 6,6 11 6 18 10 ZO 1038,6 10
17.01.2017 18:00:00 1,3 -2,3 6,6 11 6 18 10 ZO 1038,3 10
17.01.2017 17:00:00 1,0 -2,3 6,6 11 6 18 10 ZO 1038,2 9
17.01.2017 16:00:00 0,7 -2,2 6,6 11 6 18 10 ZO 1038,2 9
17.01.2017 15:00:00 0,0 -2,1 6,6 11 6 18 10 OZO 1037,9 7
17.01.2017 14:00:00 -0,3 -2,4 6,6 14 8 22 12 OZO 1037,9 6
17.01.2017 13:00:00 -0,4 -2,5 6,6 14 8 22 12 OZO 1038,2 6
17.01.2017 12:00:00 -0,7 -3,0 6,6 11 6 18 10 ZO 1038,3 7
17.01.2017 11:00:00 -0,4 -2,6 6,6 14 8 22 12 ZO 1038,1 6
17.01.2017 10:00:00 0,0 -2,4 6,6 18 10 22 12 ZO 1037,5 7
17.01.2017 09:00:00 0,0 -2,5 6,7 18 10 25 14 OZO 1036,6 7
17.01.2017 08:00:00 0,1 -2,1 6,6 14 8 22 12 OZO 1036,3 7
17.01.2017 07:00:00 0,2 -2,5 6,6 14 8 18 10 OZO 1035,8 7
17.01.2017 06:00:00 0,0 -3,0 6,6 14 8 18 10 OZO 1035,1 7
17.01.2017 05:00:00 0,0 -3,0 6,6 11 6 22 12 OZO 1035,3 8
17.01.2017 04:00:00 -1,0 -3,0 6,6 18 10 - - OZO 1034,8 7
17.01.2017 03:00:00 -0,4 -2,9 6,7 18 10 22 12 OZO 1034,6 8
17.01.2017 02:00:00 -0,3 -2,7 6,7 18 10 22 12 O 1034,1 9
17.01.2017 01:00:00 -0,1 -2,3 6,7 14 8 22 12 O 1033,8 10
17.01.2017 00:00:00 0,0 -2,5 6,6 18 10 25 14 O 1033,5 12
16.01.2017 23:00:00 0,4 -1,9 6,7 18 10 25 14 O 1033,1 12
16.01.2017 22:00:00 1,4 -2,6 6,7 14 8 22 12 O 1032,7 21
16.01.2017 21:00:00 1,8 -0,8 6,7 18 10 25 14 O 1031,9 15
16.01.2017 20:00:00 2,5 -0,6 6,7 14 8 25 14 O 1031,0 18
16.01.2017 19:00:00 3,1 -0,1 6,7 22 12 29 16 O 1030,1 17
16.01.2017 18:00:00 4,0 -0,8 6,7 14 8 22 12 ONO 1029,8 47
16.01.2017 17:00:00 4,3 -1,4 6,7 14 8 22 12 ONO 1029,1 49
16.01.2017 16:00:00 4,4 -0,4 6,7 14 8 18 10 ONO 1028,6 48
16.01.2017 15:00:00 4,4 -0,7 6,7 11 6 14 8 NO 1028,3 47
16.01.2017 14:00:00 4,1 -0,3 6,7 7 4 14 8 ONO 1028,0 44
16.01.2017 13:00:00 4,2 -0,5 6,7 11 6 22 12 ONO 1028,1 46
16.01.2017 12:00:00 4,4 0,2 6,7 18 10 22 12 ONO 1027,8 42
16.01.2017 11:00:00 4,7 0,7 6,7 11 6 22 12 ONO 1027,4 39
16.01.2017 10:00:00 4,5 -0,3 6,7 7 4 25 14 NO 1027,1 49
16.01.2017 09:00:00 5,0 0,1 6,7 11 6 14 8 NNO 1026,7 50
16.01.2017 08:00:00 4,4 0,9 6,7 14 8 25 14 O 1026,1 47
16.01.2017 07:00:00 4,1 1,3 6,8 11 6 36 19 NO 1025,7 16
16.01.2017 06:00:00 5,0 1,6 6,7 14 8 36 19 NO 1025,2 48
16.01.2017 05:00:00 5,7 0,7 6,7 14 8 22 12 NNW 1025,1 50
16.01.2017 04:00:00 5,3 1,4 6,7 11 6 25 14 N 1024,9 49
16.01.2017 03:00:00 5,6 0,6 6,7 14 8 22 12 N 1024,6 50
16.01.2017 02:00:00 5,4 1,1 6,7 14 8 18 10 N 1024,4 50
16.01.2017 01:00:00 5,3 1,9 6,7 11 6 14 8 NNW 1024,4 40
16.01.2017 00:00:00 5,1 1,6 6,7 7 4 11 6 N 1024,1 50
15.01.2017 23:00:00 5,1 1,6 6,7 7 4 7 4 NNW 1023,9 50
15.01.2017 22:00:00 4,9 1,5 6,7 4 2 7 4 WZW 1023,6 50
15.01.2017 21:00:00 4,7 2,0 6,7 4 2 11 6 Z 1023,0 50
15.01.2017 20:00:00 4,6 2,0 6,7 11 6 14 8 Z 1022,7 50
15.01.2017 19:00:00 4,4 2,0 6,7 4 2 7 4 OZO 1022,2 50
15.01.2017 18:00:00 4,4 1,7 6,7 4 2 11 6 Z 1021,8 25
15.01.2017 17:00:00 4,2 1,5 6,7 11 6 14 8 ZZW 1021,3 50
15.01.2017 16:00:00 4,2 1,5 6,7 11 6 22 12 ZW 1021,0 43
15.01.2017 15:00:00 4,6 1,5 6,7 7 4 14 8 WZW 1021,0 45
15.01.2017 14:00:00 4,7 0,7 6,7 11 6 25 14 W 1021,1 38
15.01.2017 13:00:00 5,0 0,4 6,7 18 10 29 16 W 1021,0 37
15.01.2017 12:00:00 5,3 0,4 6,7 25 14 29 16 W 1021,2 33
15.01.2017 11:00:00 5,6 1,6 6,7 22 12 29 16 W 1021,2 38

tt = temperatuur
td = dauwpunt
tw = water temperatuur
ff = windsnelheid
fx = windstoten
dd = windrichting
ppp = luchtdruk
vv = zicht

Weerstations in de omgeving